[[{"header":{"parameterUnit":"m.s-1","parameterCategory":1,"la1":30.2991,"la2":30.254,"lo1":-89.0895,"lo2":-89.0444,"dx":0.0017,"dy":0.0017,"nx":28,"ny":28,"refTime":"2023-01-30T15:00:00:Z","depth":0,"parameterNumber":2,"parameterNumberName":"U-component_of_WINDS"},"data":[0,0,0,0,0,0,0,0,0,0,0,0,0,0,0,0,0,0,0,0,0,0,0,0,0,0,0,0,0,0,0,0,0,0,0,0,0,0,0,0,0,0,0,0,0,0,0,0,0,0,0,0,0,0,0,0,0,0,-1.0607,-1.0607,0,-1.0617,-1.0617,-1.0618,-1.0579,-1.0578,-1.0576,-1.0575,-1.0586,-1.0588,-1.0589,0,0,0,0,0,0,0,0,0,0,0,0,0,-1.0554,-1.0555,-1.0607,-1.0607,-1.0607,-1.0617,-1.0617,-1.0618,-1.0579,-1.0577,-1.0576,-1.0575,-1.0586,-1.0587,-1.0589,0,0,0,0,0,0,0,0,0,0,0,0,0,-1.0572,-1.0555,-1.0607,-1.0589,-1.0587,-1.0617,-1.0618,-1.0618,-1.0579,-1.0577,-1.0576,-1.0574,-1.0585,-1.0587,-1.0589,-1.0637,0,0,-1.0596,-1.0597,0,0,0,0,0,0,0,0,-1.0571,-1.0574,-1.0591,-1.059,-1.0588,-1.0595,-1.0603,-1.0624,-1.058,-1.0582,-1.0575,-1.0573,-1.0591,-1.0592,-1.0598,-1.0638,-1.0638,-1.0596,-1.0597,-1.0598,-1.0599,0,0,0,0,0,0,0,-1.057,-1.0573,-1.0611,-1.0592,-1.059,-1.0581,-1.0581,-1.0607,-1.0596,-1.0582,-1.0579,-1.0581,-1.0589,-1.0596,-1.0598,-1.0638,-1.0596,-1.0598,-1.0599,-1.06,-1.0719,-1.0721,0,0,0,0,0,0,-1.0571,-1.0572,-1.0611,-1.0611,-1.0575,-1.0583,-1.0584,-1.0595,-1.0596,-1.0594,-1.0582,-1.0579,-1.0593,-1.0596,-1.0598,-1.0654,-1.0598,-1.06,-1.0601,-1.0717,-1.0719,-1.0721,0,0,0,0,0,0,-1.057,-1.0574,-1.061,-1.0591,-1.0595,-1.0586,-1.0598,-1.0596,-1.0602,-1.0596,-1.0594,-1.0591,-1.0592,-1.0595,-1.0628,-1.0654,-1.0601,-1.0603,-1.0715,-1.0718,-1.072,-1.0767,0,0,0,0,0,0,-1.0568,-1.0574,-1.0592,-1.0592,-1.0596,-1.0639,-1.06,-1.0597,-1.0606,-1.0602,-1.0604,-1.0602,-1.0591,-1.0625,-1.063,-1.0656,-1.0604,-1.0712,-1.0716,-1.0719,-1.0763,-1.0771,-1.0778,0,0,0,0,0,-1.0567,-1.0605,-1.0593,-1.0598,-1.0618,-1.0641,-1.0643,-1.063,-1.0608,-1.0626,-1.0622,-1.0602,-1.0651,-1.0629,-1.0634,-1.0661,-1.071,-1.0715,-1.0719,-1.076,-1.077,-1.0778,0,0,0,0,0,0,-1.0608,-1.0604,-1.0591,-1.063,-1.0636,-1.0634,-1.0656,-1.064,-1.0653,-1.0648,-1.0631,-1.0632,-1.0667,-1.0668,-1.0643,-1.0708,-1.0677,-1.0683,-1.0706,-1.0716,-1.0723,-1.0722,-1.0606,0,0,0,0,0,-1.0621,-1.064,-1.0636,-1.0671,-1.0675,-1.0665,-1.0675,-1.0664,-1.0669,-1.0672,-1.067,-1.0677,-1.0693,-1.0705,-1.072,-1.0764,-1.0764,-1.0785,-1.0793,-1.0799,-1.0804,-1.0828,-1.0837,-1.0735,-1.0735,-1.0735,0,0,-1.0649,-1.065,-1.0663,-1.0679,-1.0682,-1.0703,-1.0667,-1.069,-1.0705,-1.0675,-1.0706,-1.0705,-1.0711,-1.075,-1.0767,-1.0751,-1.0832,-1.0804,-1.0809,-1.0811,-1.0833,-1.0843,-1.0852,-1.0738,-1.0738,-1.0737,0,0,-1.0711,-1.0713,-1.0743,-1.0747,-1.0753,-1.0747,-1.0754,-1.0755,-1.0754,-1.0784,-1.0762,-1.0781,-1.081,-1.0815,-1.0822,-1.0888,-1.087,-1.0893,-1.0932,-1.0956,-1.0964,-1.0971,-1.0995,-1.1003,-1.0898,-1.0898,-1.0898,0,-1.0745,-1.0774,-1.076,-1.0784,-1.0793,-1.0767,-1.0797,-1.0802,-1.0813,-1.0819,-1.0802,-1.0839,-1.0841,-1.0881,-1.0897,-1.0904,-1.0912,-1.0892,-1.0964,-1.0971,-1.0977,-1.1,-1.1009,-1.0901,-1.0901,-1.09,-1.09,0,-1.0816,-1.0838,-1.0861,-1.0872,-1.0883,-1.091,-1.09,-1.0913,-1.0902,-1.0898,-1.0931,-1.0933,-1.0948,-1.0957,-1.0946,-1.0996,-1.0986,-1.0967,-1.0935,-1.099,-1.1011,-1.1019,-1.0905,-1.0904,-1.0903,-1.0902,0,0,-1.0902,-1.0907,-1.0915,-1.092,-1.0926,-1.0942,-1.0969,-1.0984,-1.0996,-1.1005,-1.1027,-1.1053,-1.1036,-1.1043,-1.1033,-1.1054,-1.1107,-1.1032,-1.1032,-1.1046,-1.1163,-1.1177,-1.1187,-1.1096,-1.1097,-1.1098,-1.1162,0,-1.0963,-1.1008,-1.0997,-1.1042,-1.1062,-1.1039,-1.1062,-1.1069,-1.1066,-1.1083,-1.108,-1.1099,-1.1074,-1.1079,-1.1099,-1.1096,-1.113,-1.1091,-1.1116,-1.1117,-1.1115,-1.1198,-1.1213,-1.1273,-1.117,-1.1172,-1.1173,0,-1.1039,-1.1051,-1.1099,-1.1102,-1.111,-1.1131,-1.1145,-1.1161,-1.1168,-1.1165,-1.1175,-1.1161,-1.1188,-1.1157,-1.1195,-1.1169,-1.1179,-1.1179,-1.1181,-1.1182,-1.1148,-1.1201,-1.1292,-1.1301,-1.1185,-1.1184,-1.1183,0,-1.1097,-1.1126,-1.1158,-1.1163,-1.1168,-1.1183,-1.1186,-1.1192,-1.1202,-1.1215,-1.1221,-1.1237,-1.1245,-1.1258,-1.1249,-1.1227,-1.1289,-1.1257,-1.1287,-1.1287,-1.13,-1.1299,-1.1393,-1.1307,-1.1307,-1.1307,-1.1307,0,-1.1166,-1.1195,-1.1184,-1.1204,-1.1237,-1.1224,-1.1258,-1.1258,-1.1263,-1.1283,-1.1265,-1.1284,-1.1271,-1.1289,-1.1283,-1.1315,-1.1319,-1.1318,-1.1315,-1.1319,-1.1319,-1.1325,-1.132,-1.1309,-1.1309,-1.1308,-1.1308,0,-1.1235,-1.1229,-1.1263,-1.1265,-1.1266,-1.1291,-1.1293,-1.1312,-1.1308,-1.1334,-1.1339,-1.1334,-1.1355,-1.1348,-1.137,-1.1366,-1.1407,-1.14,-1.1405,-1.1403,-1.1433,-1.143,-1.1533,-1.1546,-1.1453,-1.1454,-1.1454,0,-1.1279,-1.1302,-1.1307,-1.1319,-1.1323,-1.1343,-1.1354,-1.1343,-1.1355,-1.1366,-1.1383,-1.1403,-1.1417,-1.1452,-1.1451,-1.1468,-1.1461,-1.1496,-1.1463,-1.1466,-1.1461,-1.146,-1.1462,-1.1502,-1.1503,-1.1504,-1.1504,0,-1.1357,-1.1354,-1.137,-1.1386,-1.1399,-1.1411,-1.1421,-1.1432,-1.1422,-1.1437,-1.1458,-1.147,-1.1493,-1.1513,-1.1529,-1.1532,-1.1517,-1.1515,-1.1523,-1.1526,-1.1528,-1.1528,-1.1422,-1.1512,-1.1512,-1.1511,-1.1511,-1.151,-1.1415,-1.1435,-1.1442,-1.1461,-1.1468,-1.1478,-1.1496,-1.1496,-1.1513,-1.1531,-1.1524,-1.1549,-1.1557,-1.1577,-1.1582,-1.1602,-1.1589,-1.16,-1.1603,-1.1606,-1.161,-1.1526,-1.1605,-1.1605,-1.1605,-1.1604,-1.1604,0,-1.1493,-1.1496,-1.1514,-1.153,-1.1545,-1.153,-1.1541,-1.1555,-1.1577,-1.1586,-1.1601,-1.1626,-1.1646,-1.1647,-1.1665,-1.1681,-1.1674,-1.1686,-1.1684,-1.1686,-1.1621,-1.1612,-1.1691,-1.1691,-1.1691,-1.1691,-1.1691,-1.1691,-1.1535,-1.1567,-1.1564,-1.16,-1.1604,-1.1628,-1.1635,-1.1645,-1.1652,-1.1681,-1.1697,-1.1698,-1.1704,-1.1723,-1.1741,-1.174,-1.1748,-1.1762,-1.176,-1.1699,-1.169,-1.1682,-1.1673,-1.1764,-1.1764,-1.1823,-1.1823,-1.1824]},{"header":{"parameterUnit":"m.s-1","parameterCategory":1,"la1":30.2991,"la2":30.254,"lo1":-89.0895,"lo2":-89.0444,"dx":0.0017,"dy":0.0017,"nx":28,"ny":28,"refTime":"2023-01-30T15:00:00:Z","depth":0,"parameterNumber":3,"parameterNumberName":"V-component_of_WINDS"},"data":[0,0,0,0,0,0,0,0,0,0,0,0,0,0,0,0,0,0,0,0,0,0,0,0,0,0,0,0,0,0,0,0,0,0,0,0,0,0,0,0,0,0,0,0,0,0,0,0,0,0,0,0,0,0,0,0,0,0,2.5109,2.5109,0,2.5047,2.5046,2.5045,2.5032,2.5033,2.5033,2.5034,2.4963,2.496,2.4958,0,0,0,0,0,0,0,0,0,0,0,0,0,2.5213,2.5211,2.5109,2.5109,2.5108,2.5047,2.5046,2.5045,2.5032,2.5033,2.5034,2.5034,2.4964,2.4961,2.4958,0,0,0,0,0,0,0,0,0,0,0,0,0,2.516,2.521,2.511,2.5094,2.5092,2.5047,2.5046,2.5045,2.5032,2.5033,2.5034,2.5034,2.4964,2.4961,2.4958,2.4921,0,0,2.4947,2.4945,0,0,0,0,0,0,0,0,2.5163,2.5157,2.5097,2.5095,2.5093,2.5048,2.5056,2.5003,2.5032,2.5055,2.5034,2.5035,2.499,2.4985,2.4971,2.4917,2.4914,2.4946,2.4944,2.4943,2.4942,0,0,0,0,0,0,0,2.5167,2.5159,2.5084,2.5097,2.5094,2.5089,2.5082,2.5046,2.5019,2.5053,2.5052,2.5045,2.4989,2.4974,2.4969,2.4913,2.4946,2.4943,2.4941,2.494,2.4826,2.4825,0,0,0,0,0,0,2.5174,2.5162,2.5086,2.5082,2.5131,2.5086,2.5079,2.5062,2.5019,2.5014,2.5044,2.5045,2.498,2.4973,2.4967,2.492,2.4943,2.4939,2.4937,2.4826,2.4825,2.4824,0,0,0,0,0,0,2.5176,2.5168,2.5089,2.5122,2.5112,2.5084,2.5065,2.506,2.5045,2.5013,2.5007,2.5035,2.498,2.4972,2.4933,2.4918,2.4938,2.4935,2.4827,2.4826,2.4825,2.4828,0,0,0,0,0,0,2.518,2.5168,2.5155,2.5122,2.511,2.5058,2.5064,2.5058,2.504,2.504,2.5002,2.4997,2.498,2.4938,2.4929,2.4913,2.4932,2.4829,2.4827,2.4825,2.4829,2.4827,2.4825,0,0,0,0,0,2.5183,2.5157,2.5155,2.5146,2.5094,2.5057,2.505,2.5033,2.5039,2.5025,2.5004,2.4998,2.4921,2.4934,2.4924,2.4907,2.4829,2.4827,2.4825,2.483,2.4827,2.4825,0,0,0,0,0,0,2.5187,2.5153,2.515,2.5112,2.5088,2.5055,2.5036,2.5031,2.5003,2.5003,2.4982,2.4973,2.4936,2.4917,2.4932,2.4868,2.4875,2.4871,2.4882,2.4879,2.4877,2.4882,2.4929,0,0,0,0,0,2.5184,2.5159,2.513,2.51,2.5088,2.5064,2.5048,2.5037,2.501,2.4999,2.4975,2.4947,2.4917,2.4897,2.4867,2.4826,2.4817,2.4809,2.4807,2.4806,2.4802,2.4779,2.4775,2.4818,2.4818,2.4818,0,0,2.5177,2.5155,2.514,2.51,2.508,2.5053,2.5056,2.5027,2.5006,2.4994,2.4956,2.4938,2.4905,2.4865,2.4846,2.4849,2.4789,2.4803,2.4802,2.4799,2.4776,2.4772,2.4769,2.4816,2.4816,2.4817,0,0,2.5149,2.5131,2.5104,2.5084,2.5055,2.504,2.5033,2.5001,2.4989,2.4952,2.4942,2.4916,2.4864,2.4841,2.4823,2.4788,2.4781,2.4779,2.4768,2.4745,2.4742,2.4739,2.4726,2.4721,2.4776,2.4776,2.4776,0,2.5143,2.5104,2.509,2.5062,2.5044,2.5035,2.5007,2.4988,2.4949,2.4936,2.494,2.4875,2.4852,2.4807,2.4798,2.4784,2.4775,2.4783,2.4744,2.4741,2.4737,2.4725,2.472,2.4775,2.4775,2.4775,2.4775,0,2.5098,2.5071,2.5052,2.5018,2.4998,2.497,2.495,2.4931,2.4923,2.4906,2.4868,2.4841,2.4805,2.4794,2.4784,2.4746,2.4749,2.4749,2.4755,2.4734,2.4721,2.4716,2.4775,2.4775,2.4775,2.4775,0,0,2.507,2.503,2.5023,2.5007,2.4975,2.4952,2.4923,2.4891,2.4875,2.4848,2.4822,2.478,2.478,2.4759,2.4746,2.4727,2.47,2.4729,2.4728,2.4724,2.4656,2.4656,2.4651,2.4696,2.4695,2.4694,2.4659,0,2.5039,2.4989,2.4976,2.4933,2.4907,2.4898,2.4873,2.4849,2.4833,2.4807,2.4789,2.4759,2.4761,2.4749,2.4729,2.4708,2.4686,2.471,2.467,2.4669,2.4678,2.4645,2.4644,2.4612,2.4654,2.4653,2.4653,0,2.4995,2.4971,2.4926,2.4897,2.4885,2.4863,2.4832,2.4809,2.4781,2.477,2.4748,2.4738,2.4706,2.4715,2.4669,2.4685,2.4668,2.4655,2.4653,2.4648,2.4659,2.4638,2.4601,2.4596,2.4645,2.4645,2.4646,0,2.4979,2.4934,2.4902,2.4889,2.4854,2.4838,2.4823,2.4796,2.4778,2.475,2.4738,2.4706,2.4688,2.4663,2.4644,2.4653,2.46,2.4607,2.4589,2.4589,2.4577,2.4578,2.4537,2.4567,2.4567,2.4568,2.4568,0,2.4945,2.4917,2.4894,2.4874,2.4843,2.4827,2.4796,2.478,2.4756,2.4731,2.4721,2.4698,2.4675,2.4647,2.4632,2.4596,2.4588,2.4578,2.4574,2.4578,2.4579,2.4566,2.4567,2.4566,2.4567,2.4567,2.4567,0,2.4921,2.4905,2.4869,2.484,2.4832,2.481,2.4784,2.4763,2.4748,2.4716,2.4708,2.4682,2.465,2.4629,2.4587,2.4577,2.4537,2.4534,2.4547,2.4545,2.4528,2.453,2.4476,2.4468,2.4504,2.4504,2.4504,0,2.49,2.4879,2.4848,2.4832,2.4817,2.4791,2.4773,2.4756,2.4737,2.4705,2.4687,2.4655,2.4628,2.4576,2.4553,2.452,2.4516,2.45,2.4511,2.4516,2.4515,2.4516,2.4514,2.4497,2.4497,2.4497,2.4497,0,2.4864,2.4857,2.4833,2.4805,2.4785,2.4761,2.4738,2.4725,2.4704,2.4683,2.4651,2.463,2.4589,2.4556,2.4522,2.4503,2.4496,2.4494,2.4487,2.4491,2.45,2.4494,2.4541,2.4494,2.4495,2.4495,2.4495,2.4495,2.484,2.4822,2.4798,2.477,2.4752,2.473,2.471,2.4693,2.4666,2.4633,2.4624,2.459,2.4562,2.4516,2.4497,2.4469,2.4471,2.4462,2.446,2.4458,2.4458,2.4505,2.4463,2.4463,2.4463,2.4463,2.4463,0,2.4804,2.4788,2.4764,2.4733,2.4711,2.4709,2.4683,2.4664,2.4635,2.4611,2.4586,2.4549,2.4517,2.4492,2.4459,2.4441,2.4437,2.4433,2.4434,2.4429,2.4458,2.4467,2.4437,2.4437,2.4437,2.4437,2.4437,2.4437,2.4782,2.475,2.4741,2.4699,2.4683,2.4652,2.4637,2.4617,2.4598,2.4558,2.4532,2.4517,2.4492,2.4457,2.4427,2.442,2.4408,2.4405,2.4397,2.4424,2.4427,2.443,2.4438,2.4403,2.4403,2.4371,2.437,2.437]}]]